| time (UTC) | temp F | wind direction | speed MPH | gust MPH | rain 1hr in | rain 24hr in | rain mn in | humidity % | barometer mb |
| 20260509032158 | 77 | 79 | 7.0 | 13.0 | 0.00 | 0.00 | 0.00 | 81 | 1020.5 |
| 20260509031656 | 77 | 38 | 5.0 | 10.0 | 0.00 | 0.00 | 0.00 | 82 | 1020.6 |
| 20260509031153 | 77 | 108 | 3.0 | 7.0 | 0.00 | 0.00 | 0.00 | 82 | 1020.4 |
| 20260509030652 | 77 | 75 | 4.0 | 7.0 | 0.00 | 0.00 | 0.00 | 83 | 1020.7 |
| 20260509030149 | 77 | 96 | 4.0 | 8.0 | 0.00 | 0.00 | 0.00 | 83 | 1020.4 |
| 20260509025645 | 77 | 71 | 3.0 | 6.0 | 0.00 | 0.00 | 0.00 | 83 | 1020.6 |
| 20260509025141 | 77 | 98 | 5.0 | 7.0 | 0.00 | 0.00 | 0.00 | 82 | 1020.6 |
| 20260509024636 | 77 | 127 | 6.0 | 8.0 | 0.00 | 0.00 | 0.00 | 82 | 1020.7 |
| 20260509024132 | 77 | 132 | 2.0 | 7.0 | 0.00 | 0.00 | 0.00 | 82 | 1020.6 |
| 20260509023630 | 77 | 115 | 4.0 | 6.0 | 0.00 | 0.00 | 0.00 | 81 | 1020.5 |
| 20260509023127 | 77 | 79 | 4.0 | 7.0 | 0.00 | 0.00 | 0.00 | 81 | 1020.7 |
| 20260509022623 | 77 | 118 | 4.0 | 7.0 | 0.00 | 0.00 | 0.00 | 80 | 1020.6 |
| 20260509022121 | 77 | 128 | 4.0 | 6.0 | 0.00 | 0.00 | 0.00 | 80 | 1020.7 |
| 20260509021618 | 77 | 85 | 3.0 | 8.0 | 0.00 | 0.00 | 0.00 | 80 | 1020.6 |
| 20260509021115 | 77 | 63 | 3.0 | 6.0 | 0.00 | 0.00 | 0.00 | 80 | 1020.6 |
| 20260509020613 | 77 | 107 | 5.0 | 7.0 | 0.00 | 0.00 | 0.00 | 80 | 1020.4 |
| 20260509020109 | 77 | 81 | 5.0 | 9.0 | 0.00 | 0.00 | 0.00 | 80 | 1020.3 |
| 20260509015609 | 77 | 86 | 5.0 | 7.0 | 0.00 | 0.00 | 0.00 | 80 | 1020.3 |
| 20260509015106 | 77 | 97 | 5.0 | 8.0 | 0.00 | 0.00 | 0.00 | 80 | 1020.5 |
| 20260509014602 | 77 | 86 | 6.0 | 9.0 | 0.00 | 0.00 | 0.00 | 80 | 1020.7 |
| 20260509014059 | 77 | 101 | 6.0 | 8.0 | 0.00 | 0.00 | 0.00 | 80 | 1020.4 |
| 20260509013555 | 77 | 72 | 6.0 | 9.0 | 0.00 | 0.00 | 0.00 | 80 | 1020.5 |
| 20260509013051 | 77 | 51 | 6.0 | 8.0 | 0.00 | 0.00 | 0.00 | 80 | 1020.3 |
| 20260509012548 | 77 | 73 | 6.0 | 8.0 | 0.00 | 0.00 | 0.00 | 80 | 1020.3 |
| 20260509012045 | 77 | 112 | 4.0 | 7.0 | 0.00 | 0.00 | 0.00 | 80 | 1020.2 |
| 20260509011543 | 77 | 80 | 7.0 | 9.0 | 0.00 | 0.00 | 0.00 | 80 | 1020.3 |
| 20260509011040 | 77 | 47 | 7.0 | 8.0 | 0.00 | 0.00 | 0.00 | 80 | 1020.4 |
| 20260509010537 | 77 | 76 | 4.0 | 8.0 | 0.00 | 0.00 | 0.00 | 80 | 1020.5 |
| 20260509010034 | 77 | 85 | 4.0 | 7.0 | 0.00 | 0.00 | 0.00 | 79 | 1020.3 |
| 20260509005532 | 77 | 71 | 4.0 | 8.0 | 0.00 | 0.00 | 0.00 | 79 | 1020.1 |
| 20260509005032 | 78 | 122 | 4.0 | 8.0 | 0.00 | 0.00 | 0.00 | 79 | 1020.2 |
| 20260509004529 | 78 | 73 | 3.0 | 6.0 | 0.00 | 0.00 | 0.00 | 79 | 1020.3 |
| 20260509004026 | 78 | 168 | 3.0 | 7.0 | 0.00 | 0.00 | 0.00 | 79 | 1020.0 |
| 20260509003525 | 77 | 75 | 4.0 | 6.0 | 0.00 | 0.00 | 0.00 | 79 | 1020.1 |
| 20260509003021 | 78 | 105 | 5.0 | 6.0 | 0.00 | 0.00 | 0.00 | 78 | 1020.2 |
| 20260509002519 | 78 | 92 | 3.0 | 4.0 | 0.00 | 0.00 | 0.00 | 78 | 1019.9 |
| 20260509002016 | 78 | 239 | 0.0 | 2.0 | 0.00 | 0.00 | 0.00 | 78 | 1020.0 |
| 20260509001513 | 78 | 249 | 1.0 | 7.0 | 0.00 | 0.00 | 0.00 | 78 | 1019.9 |
| 20260509001009 | 78 | 79 | 1.0 | 3.0 | 0.00 | 0.00 | 0.00 | 78 | 1019.8 |
| 20260509000508 | 78 | 202 | 3.0 | 7.0 | 0.00 | 0.00 | 0.00 | 78 | 1019.8 |
| 20260509000003 | 78 | 156 | 2.0 | 4.0 | 0.00 | 0.00 | 0.00 | 79 | 1019.7 |
| 20260508235501 | 78 | 61 | 4.0 | 6.0 | 0.00 | 0.00 | 0.00 | 78 | 1019.8 |
| 20260508234957 | 78 | 121 | 3.0 | 4.0 | 0.00 | 0.00 | 0.00 | 78 | 1019.5 |
| 20260508234454 | 78 | 163 | 3.0 | 6.0 | 0.00 | 0.00 | 0.00 | 78 | 1019.4 |
| 20260508233952 | 78 | 99 | 4.0 | 6.0 | 0.00 | 0.00 | 0.00 | 78 | 1019.6 |
| 20260508233451 | 78 | 120 | 3.0 | 3.0 | 0.00 | 0.00 | 0.00 | 77 | 1019.5 |
| 20260508232948 | 78 | 206 | 1.0 | 4.0 | 0.00 | 0.00 | 0.00 | 77 | 1019.8 |
| 20260508232445 | 79 | 62 | 2.0 | 3.0 | 0.00 | 0.00 | 0.00 | 77 | 1019.4 |
| 20260508231942 | 79 | 203 | 1.0 | 3.0 | 0.00 | 0.00 | 0.00 | 77 | 1019.5 |
| 20260508231439 | 79 | 87 | 2.0 | 3.0 | 0.00 | 0.00 | 0.00 | 77 | 1019.5 |
| 20260508230936 | 79 | 63 | 4.0 | 4.0 | 0.00 | 0.00 | 0.00 | 77 | 1019.4 |
| 20260508230432 | 79 | 208 | 1.0 | 2.0 | 0.00 | 0.00 | 0.00 | 77 | 1019.5 |
| 20260508225929 | 79 | 186 | 2.0 | 3.0 | 0.00 | 0.00 | 0.00 | 76 | 1019.3 |
| 20260508225426 | 79 | 80 | 2.0 | 6.0 | 0.00 | 0.00 | 0.00 | 76 | 1019.3 |
| 20260508224924 | 79 | 163 | 2.0 | 7.0 | 0.00 | 0.00 | 0.00 | 76 | 1019.2 |
| 20260508224421 | 79 | 98 | 1.0 | 6.0 | 0.00 | 0.00 | 0.00 | 77 | 1019.2 |
| 20260508223919 | 79 | 132 | 2.0 | 6.0 | 0.00 | 0.00 | 0.00 | 77 | 1019.3 |
| 20260508223416 | 79 | 72 | 4.0 | 6.0 | 0.00 | 0.00 | 0.00 | 76 | 1019.2 |
| 20260508222913 | 79 | 115 | 3.0 | 4.0 | 0.00 | 0.00 | 0.00 | 76 | 1019.2 |
| 20260508222410 | 79 | 106 | 4.0 | 4.0 | 0.00 | 0.00 | 0.00 | 76 | 1019.1 |
| 20260508221907 | 80 | 89 | 4.0 | 8.0 | 0.00 | 0.00 | 0.00 | 76 | 1018.7 |
| 20260508221402 | 80 | 87 | 4.0 | 7.0 | 0.00 | 0.00 | 0.00 | 76 | 1019.1 |
| 20260508220859 | 80 | 119 | 2.0 | 6.0 | 0.00 | 0.00 | 0.00 | 75 | 1018.7 |
| 20260508220356 | 80 | 138 | 3.0 | 8.0 | 0.00 | 0.00 | 0.00 | 75 | 1018.8 |
| 20260508215852 | 80 | 110 | 6.0 | 8.0 | 0.00 | 0.00 | 0.00 | 75 | 1018.7 |
| 20260508215349 | 80 | 159 | 2.0 | 4.0 | 0.00 | 0.00 | 0.00 | 75 | 1018.8 |
| 20260508214846 | 80 | 116 | 3.0 | 4.0 | 0.00 | 0.00 | 0.00 | 74 | 1018.8 |
| 20260508214343 | 80 | 67 | 2.0 | 4.0 | 0.00 | 0.00 | 0.00 | 74 | 1018.8 |
| 20260508213839 | 80 | 146 | 4.0 | 7.0 | 0.00 | 0.00 | 0.00 | 73 | 1018.7 |
| 20260508213337 | 80 | 109 | 6.0 | 7.0 | 0.00 | 0.00 | 0.00 | 73 | 1018.7 |
| 20260508212832 | 80 | 192 | 4.0 | 8.0 | 0.00 | 0.00 | 0.00 | 73 | 1018.6 |
| 20260508212329 | 80 | 172 | 3.0 | 7.0 | 0.00 | 0.00 | 0.00 | 72 | 1018.5 |
| 20260508211825 | 81 | 175 | 7.0 | 9.0 | 0.00 | 0.00 | 0.00 | 71 | 1018.3 |
| 20260508211320 | 81 | 82 | 5.0 | 10.0 | 0.00 | 0.00 | 0.00 | 70 | 1018.5 |
| 20260508210819 | 82 | 136 | 6.0 | 9.0 | 0.00 | 0.00 | 0.00 | 70 | 1018.4 |
| 20260508210315 | 82 | 190 | 5.0 | 8.0 | 0.00 | 0.00 | 0.00 | 68 | 1018.3 |
| 20260508205812 | 82 | 83 | 6.0 | 13.0 | 0.00 | 0.00 | 0.00 | 69 | 1018.3 |
| 20260508205308 | 83 | 119 | 7.0 | 10.0 | 0.00 | 0.00 | 0.00 | 68 | 1018.4 |
| 20260508204805 | 83 | 130 | 6.0 | 9.0 | 0.00 | 0.00 | 0.00 | 67 | 1018.4 |
| 20260508204301 | 83 | 119 | 6.0 | 10.0 | 0.00 | 0.00 | 0.00 | 68 | 1018.3 |
| 20260508203758 | 84 | 148 | 10.0 | 11.0 | 0.00 | 0.00 | 0.00 | 66 | 1018.4 |
| 20260508203254 | 84 | 75 | 9.0 | 14.0 | 0.00 | 0.00 | 0.00 | 65 | 1018.3 |
| 20260508202749 | 83 | 147 | 9.0 | 11.0 | 0.00 | 0.00 | 0.00 | 67 | 1018.5 |
| 20260508202247 | 82 | 146 | 5.0 | 9.0 | 0.00 | 0.00 | 0.00 | 71 | 1018.4 |
| 20260508201744 | 81 | 146 | 4.0 | 8.0 | 0.00 | 0.00 | 0.00 | 71 | 1018.5 |
| 20260508201241 | 82 | 126 | 7.0 | 9.0 | 0.00 | 0.00 | 0.00 | 69 | 1018.4 |
| 20260508200737 | 82 | 63 | 6.0 | 7.0 | 0.00 | 0.00 | 0.00 | 68 | 1018.4 |
| 20260508200234 | 82 | 193 | 3.0 | 8.0 | 0.00 | 0.00 | 0.00 | 68 | 1018.3 |
| 20260508195730 | 83 | 64 | 6.0 | 10.0 | 0.00 | 0.00 | 0.00 | 66 | 1018.4 |
| 20260508195226 | 84 | 75 | 8.0 | 13.0 | 0.00 | 0.00 | 0.00 | 64 | 1018.4 |
| 20260508194723 | 84 | 102 | 8.0 | 13.0 | 0.00 | 0.00 | 0.00 | 58 | 1018.3 |
| 20260508194220 | 85 | 134 | 6.0 | 13.0 | 0.00 | 0.00 | 0.00 | 61 | 1018.5 |
| 20260508193717 | 85 | 92 | 9.0 | 14.0 | 0.00 | 0.00 | 0.00 | 61 | 1018.4 |
| 20260508193214 | 85 | 150 | 7.0 | 8.0 | 0.00 | 0.00 | 0.00 | 61 | 1018.3 |
| 20260508192710 | 85 | 112 | 10.0 | 14.0 | 0.00 | 0.00 | 0.00 | 61 | 1018.3 |
| 20260508192208 | 85 | 170 | 7.0 | 11.0 | 0.00 | 0.00 | 0.00 | 62 | 1018.3 |
| 20260508191705 | 85 | 133 | 9.0 | 17.0 | 0.00 | 0.00 | 0.00 | 62 | 1018.4 |
| 20260508191201 | 85 | 139 | 6.0 | 15.0 | 0.00 | 0.00 | 0.00 | 63 | 1018.5 |
| 20260508190659 | 86 | 113 | 11.0 | 15.0 | 0.00 | 0.00 | 0.00 | 62 | 1018.4 |
| 20260508190155 | 86 | 94 | 10.0 | 14.0 | 0.00 | 0.00 | 0.00 | 62 | 1018.5 |
| 20260508185652 | 85 | 132 | 8.0 | 13.0 | 0.00 | 0.00 | 0.00 | 62 | 1018.3 |
| 20260508185149 | 86 | 113 | 10.0 | 17.0 | 0.00 | 0.00 | 0.00 | 60 | 1018.5 |
| 20260508184646 | 85 | 87 | 10.0 | 15.0 | 0.00 | 0.00 | 0.00 | 63 | 1018.7 |
| 20260508184143 | 85 | 85 | 16.0 | 17.0 | 0.00 | 0.00 | 0.00 | 61 | 1018.5 |
| 20260508183640 | 85 | 138 | 9.0 | 13.0 | 0.00 | 0.00 | 0.00 | 63 | 1018.7 |
| 20260508183136 | 86 | 49 | 11.0 | 15.0 | 0.00 | 0.00 | 0.00 | 58 | 1018.7 |
| 20260508182632 | 86 | 77 | 7.0 | 15.0 | 0.00 | 0.00 | 0.00 | 61 | 1018.8 |
| 20260508182129 | 85 | 228 | 7.0 | 16.0 | 0.00 | 0.00 | 0.00 | 65 | 1018.7 |
| 20260508181624 | 86 | 98 | 11.0 | 14.0 | 0.00 | 0.00 | 0.00 | 63 | 1018.9 |
| 20260508181122 | 86 | 128 | 5.0 | 11.0 | 0.00 | 0.00 | 0.00 | 62 | 1018.8 |
| 20260508180619 | 87 | 76 | 12.0 | 17.0 | 0.00 | 0.00 | 0.00 | 59 | 1019.0 |
| 20260508180115 | 87 | 79 | 5.0 | 14.0 | 0.00 | 0.00 | 0.00 | 60 | 1019.0 |
| 20260508175612 | 87 | 72 | 8.0 | 14.0 | 0.00 | 0.00 | 0.00 | 59 | 1018.9 |
| 20260508175109 | 86 | 114 | 7.0 | 13.0 | 0.00 | 0.00 | 0.00 | 56 | 1019.2 |
| 20260508174606 | 87 | 145 | 9.0 | 14.0 | 0.00 | 0.00 | 0.00 | 58 | 1019.2 |
| 20260508174103 | 86 | 68 | 10.0 | 17.0 | 0.00 | 0.00 | 0.00 | 57 | 1019.1 |
| 20260508173600 | 86 | 86 | 10.0 | 15.0 | 0.00 | 0.00 | 0.00 | 62 | 1019.3 |
| 20260508173056 | 86 | 118 | 9.0 | 17.0 | 0.00 | 0.00 | 0.00 | 61 | 1019.5 |
| 20260508172554 | 86 | 110 | 11.0 | 18.0 | 0.00 | 0.00 | 0.00 | 59 | 1019.3 |
| 20260508172050 | 86 | 113 | 10.0 | 16.0 | 0.00 | 0.00 | 0.00 | 64 | 1019.5 |
| 20260508171546 | 87 | 94 | 6.0 | 14.0 | 0.00 | 0.00 | 0.00 | 63 | 1019.5 |
| 20260508171043 | 86 | 137 | 12.0 | 18.0 | 0.00 | 0.00 | 0.00 | 61 | 1019.6 |
| 20260508170540 | 86 | 76 | 15.0 | 21.0 | 0.00 | 0.00 | 0.00 | 60 | 1019.8 |
| 20260508170038 | 86 | 125 | 11.0 | 16.0 | 0.00 | 0.00 | 0.00 | 62 | 1019.7 |
| 20260508165535 | 87 | 130 | 13.0 | 16.0 | 0.00 | 0.00 | 0.00 | 61 | 1019.9 |
| 20260508165031 | 88 | 68 | 8.0 | 19.0 | 0.00 | 0.00 | 0.00 | 62 | 1019.8 |
| 20260508164528 | 87 | 112 | 7.0 | 14.0 | 0.00 | 0.00 | 0.00 | 62 | 1019.7 |
| 20260508164025 | 86 | 104 | 14.0 | 18.0 | 0.00 | 0.00 | 0.00 | 62 | 1020.0 |
| 20260508163522 | 86 | 99 | 16.0 | 21.0 | 0.00 | 0.00 | 0.00 | 62 | 1020.0 |
| 20260508163019 | 87 | 138 | 9.0 | 14.0 | 0.00 | 0.00 | 0.00 | 63 | 1020.0 |
| 20260508162516 | 87 | 87 | 10.0 | 21.0 | 0.00 | 0.00 | 0.00 | 62 | 1019.9 |
| 20260508162013 | 87 | 66 | 13.0 | 23.0 | 0.00 | 0.00 | 0.00 | 61 | 1020.2 |
| 20260508161510 | 86 | 138 | 11.0 | 15.0 | 0.00 | 0.00 | 0.00 | 61 | 1020.1 |
| 20260508161007 | 86 | 91 | 6.0 | 15.0 | 0.00 | 0.00 | 0.00 | 65 | 1020.2 |
| 20260508160506 | 86 | 135 | 10.0 | 15.0 | 0.00 | 0.00 | 0.00 | 65 | 1020.3 |
| 20260508160002 | 86 | 174 | 10.0 | 18.0 | 0.00 | 0.00 | 0.00 | 63 | 1020.1 |
| 20260508155459 | 86 | 29 | 11.0 | 14.0 | 0.00 | 0.00 | 0.00 | 63 | 1020.3 |
| 20260508154955 | 85 | 170 | 8.0 | 22.0 | 0.00 | 0.00 | 0.00 | 63 | 1020.2 |
| 20260508154453 | 86 | 127 | 7.0 | 19.0 | 0.00 | 0.00 | 0.00 | 62 | 1020.4 |
| 20260508153950 | 86 | 109 | 12.0 | 16.0 | 0.00 | 0.00 | 0.00 | 62 | 1020.4 |
| 20260508153447 | 86 | 132 | 12.0 | 18.0 | 0.00 | 0.00 | 0.00 | 62 | 1020.4 |
| 20260508152943 | 86 | 91 | 10.0 | 17.0 | 0.00 | 0.00 | 0.00 | 62 | 1020.5 |
| 20260508152439 | 87 | 154 | 7.0 | 19.0 | 0.00 | 0.00 | 0.00 | 61 | 1020.4 |
| 20260508151936 | 86 | 93 | 4.0 | 17.0 | 0.00 | 0.00 | 0.00 | 63 | 1020.4 |
| 20260508151433 | 86 | 91 | 10.0 | 17.0 | 0.00 | 0.00 | 0.00 | 61 | 1020.3 |
| 20260508150929 | 86 | 93 | 10.0 | 17.0 | 0.00 | 0.00 | 0.00 | 59 | 1020.2 |
| 20260508150426 | 86 | 88 | 6.0 | 14.0 | 0.00 | 0.00 | 0.00 | 62 | 1020.3 |
| 20260508145922 | 87 | 107 | 13.0 | 16.0 | 0.00 | 0.00 | 0.00 | 58 | 1020.5 |
| 20260508145419 | 86 | 61 | 6.0 | 13.0 | 0.00 | 0.00 | 0.00 | 61 | 1020.5 |
| 20260508144915 | 86 | 81 | 9.0 | 17.0 | 0.00 | 0.00 | 0.00 | 63 | 1020.5 |
| 20260508144413 | 85 | 85 | 11.0 | 15.0 | 0.00 | 0.00 | 0.00 | 63 | 1020.5 |
| 20260508143910 | 86 | 133 | 13.0 | 19.0 | 0.00 | 0.00 | 0.00 | 60 | 1020.5 |
| 20260508143408 | 85 | 80 | 13.0 | 16.0 | 0.00 | 0.00 | 0.00 | 60 | 1020.6 |
| 20260508142904 | 85 | 136 | 8.0 | 17.0 | 0.00 | 0.00 | 0.00 | 61 | 1020.5 |
| 20260508142401 | 86 | 132 | 9.0 | 14.0 | 0.00 | 0.00 | 0.00 | 62 | 1020.6 |
| 20260508141857 | 86 | 54 | 10.0 | 15.0 | 0.00 | 0.00 | 0.00 | 62 | 1020.8 |
| 20260508141354 | 85 | 132 | 13.0 | 18.0 | 0.00 | 0.00 | 0.00 | 62 | 1020.7 |
| 20260508140852 | 85 | 114 | 11.0 | 17.0 | 0.00 | 0.00 | 0.00 | 63 | 1020.8 |
| 20260508140349 | 85 | 5 | 9.0 | 17.0 | 0.00 | 0.00 | 0.00 | 64 | 1020.7 |
| 20260508135844 | 85 | 98 | 10.0 | 15.0 | 0.00 | 0.00 | 0.00 | 63 | 1020.7 |
| 20260508135341 | 84 | 70 | 9.0 | 17.0 | 0.00 | 0.00 | 0.00 | 65 | 1020.7 |
| 20260508134837 | 84 | 210 | 4.0 | 17.0 | 0.00 | 0.00 | 0.00 | 65 | 1020.6 |
| 20260508134334 | 84 | 65 | 8.0 | 17.0 | 0.00 | 0.00 | 0.00 | 65 | 1020.7 |
| 20260508133831 | 85 | 70 | 11.0 | 17.0 | 0.00 | 0.00 | 0.00 | 63 | 1020.4 |
| 20260508133329 | 85 | 171 | 8.0 | 13.0 | 0.00 | 0.00 | 0.00 | 64 | 1020.7 |
| 20260508132825 | 84 | 88 | 7.0 | 16.0 | 0.00 | 0.00 | 0.00 | 66 | 1020.6 |
| 20260508132323 | 84 | 122 | 11.0 | 14.0 | 0.00 | 0.00 | 0.00 | 64 | 1020.6 |
| 20260508131819 | 83 | 142 | 6.0 | 15.0 | 0.00 | 0.00 | 0.00 | 66 | 1020.5 |
| 20260508131315 | 83 | 147 | 8.0 | 14.0 | 0.00 | 0.00 | 0.00 | 66 | 1020.4 |
| 20260508130812 | 84 | 95 | 10.0 | 15.0 | 0.00 | 0.00 | 0.00 | 64 | 1020.4 |
| 20260508130309 | 82 | 40 | 6.0 | 13.0 | 0.00 | 0.00 | 0.00 | 67 | 1020.5 |
| 20260508125805 | 81 | 61 | 14.0 | 17.0 | 0.00 | 0.00 | 0.00 | 66 | 1020.6 |
| 20260508125305 | 82 | 140 | 7.0 | 18.0 | 0.00 | 0.00 | 0.00 | 68 | 1020.5 |
| 20260508124800 | 82 | 106 | 12.0 | 16.0 | 0.00 | 0.00 | 0.00 | 66 | 1020.4 |
| 20260508124256 | 82 | 131 | 9.0 | 14.0 | 0.00 | 0.00 | 0.00 | 66 | 1020.3 |
| 20260508123754 | 82 | 309 | 6.0 | 9.0 | 0.00 | 0.00 | 0.00 | 68 | 1020.2 |
| 20260508123252 | 81 | 114 | 6.0 | 11.0 | 0.00 | 0.00 | 0.00 | 68 | 1020.4 |
| 20260508122748 | 80 | 77 | 11.0 | 15.0 | 0.00 | 0.00 | 0.00 | 69 | 1020.2 |
| 20260508122245 | 80 | 54 | 9.0 | 13.0 | 0.00 | 0.00 | 0.00 | 70 | 1020.3 |
| 20260508121742 | 80 | 84 | 9.0 | 15.0 | 0.00 | 0.00 | 0.00 | 69 | 1020.4 |
| 20260508121241 | 80 | 87 | 7.0 | 14.0 | 0.00 | 0.00 | 0.00 | 70 | 1020.2 |
| 20260508120738 | 79 | 70 | 7.0 | 14.0 | 0.00 | 0.00 | 0.00 | 69 | 1020.2 |
| 20260508120237 | 79 | 82 | 7.0 | 13.0 | 0.00 | 0.00 | 0.00 | 70 | 1020.1 |
| 20260508115733 | 79 | 140 | 11.0 | 14.0 | 0.00 | 0.00 | 0.00 | 71 | 1020.2 |
| 20260508115231 | 78 | 55 | 10.0 | 16.0 | 0.00 | 0.00 | 0.00 | 72 | 1020.2 |
| 20260508114727 | 78 | 71 | 7.0 | 16.0 | 0.00 | 0.00 | 0.00 | 72 | 1020.0 |
| 20260508114224 | 78 | 76 | 9.0 | 16.0 | 0.00 | 0.00 | 0.00 | 71 | 1020.2 |
| 20260508113720 | 78 | 56 | 10.0 | 14.0 | 0.00 | 0.00 | 0.00 | 71 | 1019.9 |
| 20260508113219 | 78 | 84 | 11.0 | 14.0 | 0.00 | 0.00 | 0.00 | 71 | 1020.0 |
| 20260508112715 | 78 | 90 | 6.0 | 14.0 | 0.00 | 0.00 | 0.00 | 72 | 1019.7 |
| 20260508112212 | 77 | 110 | 12.0 | 14.0 | 0.00 | 0.00 | 0.00 | 73 | 1019.9 |
| 20260508111709 | 77 | 106 | 13.0 | 15.0 | 0.00 | 0.00 | 0.00 | 74 | 1019.7 |
| 20260508111206 | 77 | 84 | 9.0 | 14.0 | 0.00 | 0.00 | 0.00 | 75 | 1019.9 |
| 20260508110703 | 76 | 89 | 11.0 | 18.0 | 0.00 | 0.00 | 0.00 | 75 | 1019.9 |
| 20260508110200 | 76 | 102 | 7.0 | 17.0 | 0.00 | 0.00 | 0.00 | 75 | 1019.8 |
| 20260508105700 | 76 | 111 | 9.0 | 15.0 | 0.00 | 0.00 | 0.00 | 77 | 1019.8 |
| 20260508105157 | 76 | 129 | 10.0 | 15.0 | 0.00 | 0.00 | 0.00 | 77 | 1019.6 |
| 20260508104655 | 75 | 99 | 12.0 | 15.0 | 0.00 | 0.00 | 0.00 | 78 | 1019.6 |
| 20260508104151 | 75 | 96 | 8.0 | 14.0 | 0.00 | 0.00 | 0.00 | 79 | 1019.6 |
| 20260508103648 | 75 | 56 | 12.0 | 17.0 | 0.00 | 0.00 | 0.00 | 79 | 1019.7 |
| 20260508103146 | 75 | 120 | 10.0 | 15.0 | 0.00 | 0.00 | 0.00 | 80 | 1019.6 |
| 20260508102642 | 75 | 91 | 6.0 | 16.0 | 0.00 | 0.00 | 0.00 | 81 | 1019.4 |
| 20260508102141 | 74 | 46 | 8.0 | 15.0 | 0.00 | 0.00 | 0.00 | 82 | 1019.5 |
| 20260508101637 | 74 | 85 | 10.0 | 11.0 | 0.00 | 0.00 | 0.00 | 82 | 1019.7 |
| 20260508101135 | 74 | 67 | 10.0 | 14.0 | 0.00 | 0.00 | 0.00 | 83 | 1019.4 |
| 20260508100632 | 74 | 100 | 7.0 | 13.0 | 0.00 | 0.00 | 0.00 | 82 | 1019.1 |
| 20260508100130 | 74 | 67 | 7.0 | 11.0 | 0.00 | 0.00 | 0.00 | 82 | 1019.5 |
| 20260508095626 | 74 | 96 | 9.0 | 13.0 | 0.00 | 0.00 | 0.00 | 82 | 1019.3 |
| 20260508095124 | 74 | 61 | 7.0 | 13.0 | 0.00 | 0.00 | 0.00 | 82 | 1019.4 |
| 20260508094621 | 74 | 83 | 11.0 | 11.0 | 0.00 | 0.00 | 0.00 | 83 | 1019.2 |
| 20260508094117 | 74 | 68 | 7.0 | 11.0 | 0.00 | 0.00 | 0.00 | 83 | 1019.2 |
| 20260508093615 | 74 | 110 | 8.0 | 14.0 | 0.00 | 0.00 | 0.00 | 84 | 1019.2 |
| 20260508093113 | 74 | 78 | 10.0 | 10.0 | 0.00 | 0.00 | 0.00 | 84 | 1019.2 |
| 20260508092609 | 74 | 61 | 8.0 | 10.0 | 0.00 | 0.00 | 0.00 | 84 | 1019.1 |
| 20260508092108 | 74 | 86 | 8.0 | 13.0 | 0.00 | 0.00 | 0.00 | 84 | 1019.0 |
| 20260508091604 | 74 | 112 | 9.0 | 10.0 | 0.00 | 0.00 | 0.00 | 84 | 1019.0 |
| 20260508091101 | 74 | 67 | 5.0 | 9.0 | 0.00 | 0.00 | 0.00 | 84 | 1019.1 |
| 20260508090559 | 74 | 82 | 3.0 | 9.0 | 0.00 | 0.00 | 0.00 | 84 | 1018.9 |
| 20260508090056 | 74 | 114 | 6.0 | 11.0 | 0.00 | 0.00 | 0.00 | 84 | 1019.1 |
| 20260508085552 | 74 | 90 | 6.0 | 13.0 | 0.00 | 0.00 | 0.00 | 84 | 1019.0 |
| 20260508085050 | 74 | 71 | 6.0 | 8.0 | 0.00 | 0.00 | 0.00 | 84 | 1019.1 |
| 20260508084546 | 75 | 128 | 3.0 | 8.0 | 0.00 | 0.00 | 0.00 | 84 | 1019.2 |
| 20260508084044 | 75 | 1 | 4.0 | 7.0 | 0.00 | 0.00 | 0.00 | 83 | 1019.1 |
| 20260508083541 | 75 | 82 | 6.0 | 10.0 | 0.00 | 0.00 | 0.00 | 83 | 1019.1 |
| 20260508083037 | 75 | 61 | 5.0 | 8.0 | 0.00 | 0.00 | 0.00 | 83 | 1019.0 |
| 20260508082534 | 75 | 77 | 9.0 | 11.0 | 0.00 | 0.00 | 0.00 | 83 | 1019.1 |
| 20260508082031 | 75 | 102 | 7.0 | 10.0 | 0.00 | 0.00 | 0.00 | 83 | 1018.8 |
| 20260508081528 | 75 | 93 | 7.0 | 11.0 | 0.00 | 0.00 | 0.00 | 84 | 1018.8 |
| 20260508081024 | 75 | 52 | 5.0 | 14.0 | 0.00 | 0.00 | 0.00 | 84 | 1019.0 |
| 20260508080522 | 75 | 87 | 4.0 | 9.0 | 0.00 | 0.00 | 0.00 | 85 | 1018.8 |
| 20260508080019 | 75 | 81 | 9.0 | 10.0 | 0.00 | 0.00 | 0.00 | 85 | 1018.8 |
| 20260508075516 | 74 | 99 | 6.0 | 10.0 | 0.00 | 0.00 | 0.00 | 86 | 1019.0 |
| 20260508075013 | 74 | 32 | 6.0 | 10.0 | 0.00 | 0.00 | 0.00 | 87 | 1018.9 |
| 20260508074511 | 75 | 82 | 6.0 | 10.0 | 0.00 | 0.00 | 0.00 | 87 | 1018.9 |
| 20260508074008 | 75 | 61 | 6.0 | 11.0 | 0.00 | 0.00 | 0.00 | 87 | 1018.8 |
| 20260508073505 | 75 | 63 | 8.0 | 11.0 | 0.00 | 0.00 | 0.00 | 88 | 1018.9 |
| 20260508073002 | 75 | 54 | 6.0 | 11.0 | 0.00 | 0.00 | 0.00 | 88 | 1019.0 |
| 20260508072458 | 75 | 69 | 7.0 | 9.0 | 0.00 | 0.00 | 0.00 | 89 | 1018.8 |
| 20260508071955 | 75 | 55 | 5.0 | 11.0 | 0.00 | 0.00 | 0.00 | 89 | 1019.0 |
| 20260508071453 | 75 | 95 | 6.0 | 8.0 | 0.00 | 0.00 | 0.00 | 89 | 1018.8 |
| 20260508070951 | 75 | 79 | 9.0 | 11.0 | 0.00 | 0.00 | 0.00 | 90 | 1018.9 |
| 20260508070448 | 75 | 55 | 4.0 | 8.0 | 0.00 | 0.00 | 0.00 | 90 | 1018.9 |
| 20260508065946 | 75 | 54 | 5.0 | 9.0 | 0.00 | 0.00 | 0.00 | 91 | 1018.9 |
| 20260508065444 | 74 | 60 | 6.0 | 8.0 | 0.00 | 0.00 | 0.00 | 91 | 1018.9 |
| 20260508064942 | 74 | 37 | 3.0 | 8.0 | 0.00 | 0.00 | 0.00 | 92 | 1019.0 |
| 20260508064439 | 75 | 81 | 4.0 | 8.0 | 0.00 | 0.00 | 0.00 | 92 | 1018.9 |
| 20260508063937 | 75 | 76 | 5.0 | 8.0 | 0.00 | 0.00 | 0.00 | 92 | 1019.1 |
| 20260508063434 | 75 | 138 | 3.0 | 7.0 | 0.00 | 0.00 | 0.00 | 93 | 1019.2 |
| 20260508062932 | 75 | 124 | 3.0 | 7.0 | 0.00 | 0.00 | 0.00 | 93 | 1019.0 |
| 20260508062429 | 75 | 87 | 6.0 | 8.0 | 0.00 | 0.00 | 0.00 | 93 | 1019.3 |
| 20260508061926 | 75 | 100 | 3.0 | 4.0 | 0.00 | 0.00 | 0.00 | 92 | 1019.1 |
| 20260508061424 | 75 | 166 | 3.0 | 4.0 | 0.00 | 0.00 | 0.00 | 92 | 1019.3 |
| 20260508060919 | 75 | 110 | 4.0 | 6.0 | 0.00 | 0.00 | 0.00 | 92 | 1019.2 |
| 20260508060417 | 75 | 90 | 4.0 | 6.0 | 0.00 | 0.00 | 0.00 | 92 | 1019.4 |
| 20260508055913 | 75 | 84 | 3.0 | 6.0 | 0.00 | 0.00 | 0.00 | 92 | 1019.3 |
| 20260508055410 | 75 | 72 | 5.0 | 6.0 | 0.00 | 0.00 | 0.00 | 92 | 1019.5 |
| 20260508054906 | 75 | 68 | 4.0 | 7.0 | 0.00 | 0.00 | 0.00 | 92 | 1019.6 |
| 20260508054404 | 75 | 104 | 4.0 | 6.0 | 0.00 | 0.00 | 0.00 | 92 | 1019.8 |
| 20260508053900 | 75 | 121 | 3.0 | 4.0 | 0.00 | 0.00 | 0.00 | 92 | 1019.7 |
| 20260508053358 | 75 | 90 | 5.0 | 6.0 | 0.00 | 0.00 | 0.00 | 92 | 1019.8 |
| 20260508052855 | 75 | 85 | 5.0 | 7.0 | 0.00 | 0.00 | 0.00 | 92 | 1020.0 |
| 20260508052353 | 75 | 45 | 5.0 | 7.0 | 0.00 | 0.00 | 0.00 | 92 | 1019.9 |
| 20260508051849 | 75 | 113 | 5.0 | 8.0 | 0.00 | 0.00 | 0.00 | 92 | 1019.7 |
| 20260508051344 | 75 | 99 | 5.0 | 8.0 | 0.00 | 0.00 | 0.00 | 92 | 1019.9 |
| 20260508050841 | 75 | 81 | 4.0 | 7.0 | 0.00 | 0.00 | 0.00 | 92 | 1020.0 |
| 20260508050338 | 75 | 93 | 5.0 | 8.0 | 0.00 | 0.00 | 0.00 | 92 | 1020.1 |
| 20260508045833 | 75 | 86 | 5.0 | 9.0 | 0.00 | 0.00 | 0.00 | 92 | 1020.1 |
| 20260508045331 | 75 | 83 | 6.0 | 8.0 | 0.00 | 0.00 | 0.00 | 92 | 1020.3 |
| 20260508044829 | 75 | 109 | 5.0 | 8.0 | 0.00 | 0.00 | 0.00 | 92 | 1020.2 |
| 20260508044325 | 75 | 102 | 6.0 | 8.0 | 0.00 | 0.00 | 0.00 | 93 | 1020.4 |
| 20260508043821 | 75 | 87 | 5.0 | 8.0 | 0.00 | 0.00 | 0.00 | 93 | 1020.2 |
| 20260508043319 | 75 | 77 | 5.0 | 8.0 | 0.00 | 0.00 | 0.00 | 93 | 1020.5 |
| 20260508042815 | 75 | 157 | 4.0 | 8.0 | 0.00 | 0.00 | 0.00 | 93 | 1020.5 |
| 20260508042313 | 75 | 63 | 5.0 | 9.0 | 0.00 | 0.00 | 0.00 | 93 | 1020.5 |
| 20260508041809 | 75 | 129 | 5.0 | 7.0 | 0.00 | 0.00 | 0.00 | 94 | 1020.7 |
| 20260508041306 | 74 | 50 | 5.0 | 9.0 | 0.00 | 0.00 | 0.00 | 94 | 1020.7 |
| 20260508040802 | 74 | 79 | 4.0 | 7.0 | 0.00 | 0.00 | 0.00 | 94 | 1020.8 |
| 20260508040300 | 74 | 52 | 4.0 | 7.0 | 0.00 | 0.00 | 0.00 | 94 | 1020.8 |
| 20260508035757 | 74 | 74 | 4.0 | 8.0 | 0.00 | 0.10 | 0.10 | 94 | 1020.9 |
| 20260508035255 | 74 | 78 | 5.0 | 10.0 | 0.00 | 0.10 | 0.10 | 94 | 1020.8 |
| 20260508034751 | 74 | 95 | 4.0 | 7.0 | 0.00 | 0.10 | 0.10 | 94 | 1021.0 |
| 20260508034248 | 74 | 55 | 4.0 | 7.0 | 0.00 | 0.10 | 0.10 | 94 | 1020.7 |
| 20260508033745 | 74 | 58 | 5.0 | 8.0 | 0.00 | 0.10 | 0.10 | 95 | 1020.9 |
| 20260508033243 | 74 | 9 | 6.0 | 9.0 | 0.00 | 0.10 | 0.10 | 95 | 1021.0 |
| 20260508032741 | 74 | 60 | 4.0 | 8.0 | 0.00 | 0.10 | 0.10 | 94 | 1021.0 |